Weather in Uyta

Russia / Arkhangel'skaya Oblast'     63°00′34″N   42°31′00″E
temp.,
°C
wind,
m/s
gust,
m/s
humid.,
%
clouds,
%
prec.,
mm/h
press.,
hPa
HPBL,
m
7 may, fri
fri700:00+6ese61385100 0.8 999580
03:00+8se51495100 2.8 997763
06:00+8ssw41080100 1.2 999914
09:00+9ssw487768 1.3 10011113
12:00+11ssw586077 0.5 10031537
15:00+12ssw4652100 0.6 10041555
18:00+10sw3662100 0.7 10041158
21:00+7sw2484100 1.3 100687
8 may, sat
sat800:00+5sw269421 0.3 1007154
03:00+3sw22967 0.3 101054
06:00+5s248514 0.0 1011191
09:00+10sse35627 0.0 1011987
12:00+14sse5845100 0.1 10102053
15:00+14sse51046100 0.1 10092038
18:00+13s51150100 0.4 10091948
21:00+10s41168100 0.7 10091339
9 may, sun
sun900:00+8sse41180100 0.8 10081372
03:00+7sse4890100 2.6 10071025
06:00+7sse2893100 0.3 1007508
09:00+8sw2385100 0.7 1008371
12:00+8wnw3488100 0.2 1009457
15:00+5nnw4989100 0.4 1011521
18:00+6nw3784100 0.9 1014771
21:00+5wnw2787100 0.9 1016237
10 may, mon
mon1000:00+2wnw22920 0.0 101733
03:00+1wsw22895 0.0 102033
06:00+4sw24755 0.0 1022156
09:00+10sw35555 0.0 1023977
12:00+13sw473784 0.0 10232207
15:00+14sw5837100 0.0 10232323
18:00+13sw484686 0.0 10231832
21:00+11sw3865100 0.0 1024526
11 may, tue
tue1100:00+9sw3880100 0.0 1024575
03:00+9s3886100 0.0 1024379
06:00+11ssw4118294 0.1 1023459
09:00+15sw51471100 0.1 1022765
12:00+19wsw6105549 0.0 10221164
15:00+22wsw6104395 0.0 10221824
18:00+20wsw51050100 0.0 10231404
21:00+16wsw3116365 0.0 1024406